Location: Richmond
(37.5536°N, 77.4606°W)
Time: 06:20:38
(UTC-04:00)

ISS - Visible Passes

Search period start: 24 October 2014 00:00
Search period end: 02 November 2014 23:00
Orbit: 413 x 416 km, 51.6° (Epoch: 24 October)

Date Brightness Start Highest point End Pass type
(mag) Time Alt. Az. Time Alt. Az. Time Alt. Az.
24 Oct -3.0 19:40:33 10° NW 19:43:47 46° NE 19:44:04 44° NE visible
25 Oct -2.1 18:51:34 10° NNW 18:54:30 28° NNE 18:57:20 11° E visible
25 Oct -1.0 20:28:13 10° WNW 20:30:14 25° WSW 20:30:14 25° WSW visible
26 Oct -2.8 19:38:45 10° WNW 19:42:02 58° SW 19:43:41 26° SSE visible
27 Oct -3.3 18:49:28 10° NW 18:52:48 73° NE 18:56:07 10° SE visible
28 Oct -0.5 19:37:30 10° W 19:39:55 19° SW 19:42:19 10° S visible
29 Oct -1.5 18:47:38 10° WNW 18:50:42 35° SW 18:53:46 10° SSE visible
31 Oct 0.1 18:46:55 10° WSW 18:48:15 12° SW 18:49:35 10° SSW visible
